Flag for Anguilla Weather past 2 weeks in The Valley, Anguilla

Now
82 °F

Passing clouds.


Feels Like: 89 °F
Forecast: 82 / 88 °F
Wind: 6 mph from East

Location: Juliana Airport - Saint Maarten

Current Time: Oct 24, 2014 at 6:23:11 AM

Latest Report: Oct 24, 2014 at 6:00 AM


Visibility: N/A

Pressure: 29.92 "Hg

Humidity: 79%

Dew point: 75 °F

Location of The ValleyLocation

Historic Weather in The Valley — Graph

°F

The Valley temperature yesterday

Maximum temperature yesterday: 88 °F (at 12:00 PM)
Minimum temperature yesterday: 82 °F (at 12:00 AM)
Average temperature yesterday: 84 °F

Past Weeks' High & Low Weather Summary

 TemperatureHumidityPressure
High122 °F (Oct 12, 9:00 AM)94% (Oct 13, 4:00 PM)30.01 "Hg (Oct 13, 4:00 PM)
Low50 °F (Oct 12, 8:00 AM)55% (Oct 17, 5:00 PM)29.33 "Hg (Oct 13, 7:00 PM)
Average84 °F74%29.91 "Hg
* Reported Oct 9 5:00 AM — Oct 24 5:00 AM, The Valley, Weather by CustomWeather, © 2014

Note: Actual official high and low records may vary slightly from our data, if they occured in-between our weather recording intervals... More about our weather records

Advertising

The Valley weather history for previous 24 hours

 ConditionsComfort  
Time TempWeatherWind HumidityBarometerVisibility
5:00 AM
Oct 24
82 °FPassing clouds.6 mph79%29.92 "HgN/A
4:00 AM82 °FPassing clouds.6 mph79%29.92 "HgN/A
3:00 AM82 °FPassing clouds.7 mph79%29.92 "HgN/A
2:00 AM82 °FPassing clouds.7 mph84%29.92 "HgN/A
1:00 AM82 °FPassing clouds.6 mph84%29.95 "HgN/A
12:00 AM82 °FPassing clouds.8 mph79%29.95 "HgN/A
11:00 PM
Oct 23
82 °FPassing clouds.7 mph84%29.95 "HgN/A
10:00 PM84 °FPassing clouds.6 mph74%29.95 "HgN/A
9:00 PM84 °FPassing clouds.6 mph79%29.95 "HgN/A
8:00 PM84 °FPassing clouds.7 mph79%29.95 "HgN/A
7:00 PM84 °FPassing clouds.8 mph79%29.92 "HgN/A
6:00 PM84 °FPassing clouds.7 mph79%29.89 "HgN/A
5:00 PM84 °FPassing clouds.9 mph74%29.89 "HgN/A
4:00 PM86 °FPassing clouds.10 mph70%29.89 "HgN/A
3:00 PM86 °FPassing clouds.10 mph70%29.89 "HgN/A
2:00 PM88 °FScattered clouds.13 mph66%29.89 "HgN/A
1:00 PM88 °FScattered clouds.12 mph66%29.92 "HgN/A
12:00 PM88 °FScattered clouds.10 mph66%29.95 "HgN/A
11:00 AM86 °FScattered clouds.14 mph70%29.95 "HgN/A
10:00 AM86 °FScattered clouds.10 mph70%29.98 "HgN/A
9:00 AM86 °FScattered clouds.10 mph70%29.98 "HgN/A
8:00 AM82 °FScattered clouds.8 mph79%29.95 "HgN/A
7:00 AM82 °FScattered clouds.7 mph79%29.95 "HgN/A
6:00 AM82 °FPassing clouds.7 mph79%29.92 "HgN/A
Weather by CustomWeather, © 2014

See weather overviewHow to use our weather pages